[[{"header":{"parameterUnit":"m.s-1","parameterCategory":2,"la1":30.2991,"la2":30.254,"lo1":-89.0895,"lo2":-89.0444,"dy":0.0017,"dx":0.0017,"nx":28,"ny":28,"refTime":"2025-03-26T21:00:00:Z","depth":"0","parameterNumber":2,"parameterNumberName":"U-component_of_CURRENTS"},"data":[0,0,0,0,0,0,0,0,0,0,0,0,0,0,0,0,0,0,0,0,0,0,0,0,0,0,0,0,0,0,0,0,0,0,0,0,0,0,0,0,0,0,0,0,0,0,0,0,0,0,0,0,0,0,0,0,0,0,0.0585,0.0585,0,0.0504,0.0503,0.0502,0.044,0.044,0.0439,0.0439,0.0262,0.0257,0.0253,0,0,0,0,0,0,0,0,0,0,0,0,0,0.0607,0.0607,0.0585,0.0585,0.0584,0.0505,0.0503,0.0501,0.044,0.044,0.0439,0.0439,0.0263,0.0258,0.0253,0,0,0,0,0,0,0,0,0,0,0,0,0,0.0564,0.0607,0.0586,0.0547,0.0544,0.0505,0.0503,0.0501,0.044,0.044,0.0439,0.0439,0.0265,0.0259,0.0252,0.0213,0,0,0.0231,0.0228,0,0,0,0,0,0,0,0,0.0567,0.0563,0.0554,0.055,0.0546,0.0486,0.0446,0.0402,0.044,0.0474,0.0439,0.0439,0.0331,0.0319,0.0299,0.0205,0.0197,0.023,0.0226,0.0223,0.0221,0,0,0,0,0,0,0,0.057,0.0566,0.0548,0.0553,0.0548,0.0507,0.0501,0.0437,0.0399,0.0471,0.0468,0.0466,0.0328,0.0306,0.0294,0.0195,0.023,0.0224,0.022,0.0217,0.0066,0.0066,0,0,0,0,0,0,0.0594,0.0569,0.0551,0.0546,0.0562,0.0508,0.0501,0.0502,0.0402,0.0389,0.0467,0.0464,0.0317,0.0302,0.0287,0.0237,0.0223,0.0217,0.0213,0.0066,0.0066,0.0066,0,0,0,0,0,0,0.0595,0.0594,0.0554,0.0559,0.0552,0.0509,0.0509,0.05,0.048,0.0401,0.0384,0.0458,0.0317,0.0297,0.0238,0.0229,0.0213,0.0207,0.0066,0.0066,0.0066,0.0134,0,0,0,0,0,0,0.0596,0.0594,0.0593,0.0561,0.0553,0.0532,0.051,0.0499,0.0482,0.0478,0.0387,0.0371,0.0315,0.0249,0.0231,0.0219,0.0202,0.0066,0.0066,0.0066,0.0132,0.0137,0.0141,0,0,0,0,0,0.0597,0.0591,0.0594,0.0591,0.0557,0.0532,0.0523,0.0488,0.0483,0.047,0.0419,0.0374,0.0238,0.0244,0.0223,0.0209,0.0066,0.0066,0.0066,0.013,0.0136,0.0141,0,0,0,0,0,0,0.0586,0.0584,0.0586,0.0577,0.0562,0.0523,0.0505,0.0495,0.0446,0.0439,0.037,0.0349,0.0299,0.0246,0.0255,0.0168,0.0146,0.0142,0.0201,0.0206,0.021,0.0226,0.0196,0,0,0,0,0,0.0591,0.0591,0.0583,0.0574,0.057,0.0544,0.0529,0.0513,0.0473,0.0452,0.0397,0.0336,0.0283,0.0241,0.0187,0.013,0.0107,0.011,0.0115,0.0119,0.0118,0.0087,0.0089,0.0067,0.0067,0.0067,0,0,0.0582,0.0583,0.058,0.0573,0.0555,0.0543,0.0532,0.0513,0.0498,0.0438,0.0392,0.0351,0.0276,0.0223,0.0193,0.0174,0.0117,0.0119,0.0123,0.012,0.0088,0.009,0.0092,0.0067,0.0067,0.0067,0,0,0.0563,0.057,0.0564,0.056,0.0551,0.0538,0.0541,0.0515,0.0497,0.046,0.042,0.0383,0.0289,0.0242,0.0204,0.02,0.0153,0.0178,0.0195,0.0165,0.0167,0.0168,0.0164,0.0164,0.0168,0.0168,0.0168,0,0.055,0.0549,0.0555,0.0549,0.0544,0.0543,0.0532,0.0515,0.0473,0.0461,0.0452,0.0355,0.0299,0.0239,0.0241,0.0209,0.0193,0.0181,0.0173,0.0173,0.0173,0.0168,0.0167,0.0171,0.0171,0.0171,0.017,0,0.0529,0.0529,0.0524,0.0525,0.052,0.051,0.0506,0.0497,0.0489,0.0472,0.0433,0.0375,0.0318,0.0298,0.0262,0.0231,0.0222,0.0195,0.0163,0.018,0.0173,0.0172,0.0176,0.0175,0.0174,0.0173,0,0,0.049,0.0507,0.0504,0.0508,0.0511,0.0503,0.0496,0.0485,0.0482,0.0453,0.0438,0.0372,0.0362,0.0321,0.0281,0.0252,0.0251,0.0225,0.0222,0.023,0.0205,0.0254,0.0257,0.0221,0.022,0.022,0.0209,0,0.0467,0.0462,0.0476,0.0468,0.0466,0.0479,0.0473,0.0468,0.0463,0.0449,0.0416,0.0382,0.0363,0.0341,0.0316,0.0264,0.0245,0.0258,0.0179,0.0177,0.0226,0.0256,0.0294,0.0292,0.0207,0.0206,0.0206,0,0.0435,0.0442,0.0434,0.0454,0.0455,0.0451,0.0459,0.0454,0.0449,0.0445,0.0427,0.0406,0.037,0.0353,0.029,0.0299,0.0261,0.0227,0.0225,0.0243,0.0223,0.0255,0.0291,0.0306,0.0203,0.0203,0.0203,0,0.0398,0.041,0.0407,0.0411,0.043,0.0433,0.0442,0.0447,0.0448,0.0444,0.0446,0.0411,0.0389,0.0343,0.0299,0.0286,0.024,0.0206,0.0219,0.0222,0.0225,0.023,0.0271,0.0163,0.0163,0.0164,0.0164,0,0.0363,0.0359,0.0393,0.0388,0.0391,0.0415,0.0416,0.0426,0.0438,0.0439,0.044,0.0434,0.0384,0.0359,0.0312,0.0281,0.0251,0.0236,0.0223,0.0254,0.0261,0.0248,0.0268,0.0163,0.0163,0.0163,0.0163,0,0.0313,0.0333,0.0334,0.0362,0.037,0.0371,0.0401,0.0407,0.0428,0.0431,0.0432,0.0442,0.0427,0.0393,0.0324,0.0302,0.0301,0.0249,0.0311,0.0307,0.0341,0.0363,0.0454,0.0487,0.0262,0.0264,0.0265,0,0.0282,0.0279,0.0308,0.0314,0.0324,0.0338,0.035,0.0386,0.0399,0.0434,0.0433,0.0442,0.0448,0.0411,0.0388,0.0351,0.0353,0.0349,0.0329,0.0368,0.0381,0.0437,0.0461,0.0363,0.0364,0.0366,0.0367,0,0.0228,0.0242,0.0249,0.0267,0.0279,0.03,0.0325,0.0337,0.0383,0.0405,0.0437,0.0452,0.0464,0.047,0.0455,0.0425,0.043,0.0378,0.0384,0.0451,0.0546,0.0563,0.036,0.0379,0.0378,0.0377,0.0376,0.0376,0.0183,0.0184,0.0202,0.0218,0.0238,0.0265,0.0278,0.0318,0.0352,0.0397,0.0423,0.0457,0.0496,0.0502,0.0499,0.0524,0.053,0.0496,0.0517,0.0566,0.0622,0.0476,0.0502,0.0501,0.0501,0.0501,0.05,0,0.0122,0.0142,0.0156,0.018,0.0198,0.0224,0.0263,0.0286,0.0328,0.0379,0.0418,0.0476,0.0522,0.0551,0.0603,0.0636,0.0667,0.0644,0.0703,0.0714,0.0539,0.0564,0.0646,0.0646,0.0646,0.0646,0.0646,0.0646,0.0091,0.0092,0.0115,0.0135,0.0159,0.018,0.0203,0.0249,0.0292,0.0362,0.0408,0.0441,0.0545,0.0698,0.0751,0.0758,0.0792,0.0842,0.0841,0.0678,0.0664,0.0651,0.0678,0.0783,0.0783,0.1027,0.1029,0.1031]},{"header":{"parameterUnit":"m.s-1","parameterCategory":2,"la1":30.2991,"la2":30.254,"lo1":-89.0895,"lo2":-89.0444,"dy":0.0017,"dx":0.0017,"nx":28,"ny":28,"refTime":"2025-03-26T21:00:00:Z","depth":"0","parameterNumber":3,"parameterNumberName":"V-component_of_CURRENTS"},"data":[0,0,0,0,0,0,0,0,0,0,0,0,0,0,0,0,0,0,0,0,0,0,0,0,0,0,0,0,0,0,0,0,0,0,0,0,0,0,0,0,0,0,0,0,0,0,0,0,0,0,0,0,0,0,0,0,0,0,-0.1992,-0.1992,0,-0.1969,-0.1969,-0.1969,-0.1942,-0.1941,-0.1941,-0.1941,-0.1835,-0.1833,-0.183,0,0,0,0,0,0,0,0,0,0,0,0,0,-0.2013,-0.2013,-0.1992,-0.1992,-0.1992,-0.1969,-0.1969,-0.1969,-0.1942,-0.1941,-0.1941,-0.194,-0.1836,-0.1833,-0.183,0,0,0,0,0,0,0,0,0,0,0,0,0,-0.1999,-0.2013,-0.1992,-0.1975,-0.1973,-0.1969,-0.1969,-0.1969,-0.1942,-0.1941,-0.1941,-0.194,-0.1837,-0.1833,-0.183,-0.1822,0,0,-0.1819,-0.1817,0,0,0,0,0,0,0,0,-0.2,-0.1999,-0.1978,-0.1976,-0.1974,-0.1957,-0.1937,-0.1915,-0.1942,-0.1955,-0.1941,-0.194,-0.1868,-0.1862,-0.1862,-0.1817,-0.1813,-0.1819,-0.1816,-0.1815,-0.1814,0,0,0,0,0,0,0,-0.2001,-0.1999,-0.1984,-0.1977,-0.1975,-0.1968,-0.1965,-0.1934,-0.1915,-0.1954,-0.1951,-0.1948,-0.1866,-0.1865,-0.1859,-0.1811,-0.1819,-0.1815,-0.1813,-0.1812,-0.1784,-0.1786,0,0,0,0,0,0,-0.2003,-0.2,-0.1985,-0.1983,-0.1985,-0.1968,-0.1965,-0.1964,-0.1917,-0.191,-0.1948,-0.1947,-0.1872,-0.1863,-0.1855,-0.1859,-0.1815,-0.1812,-0.181,-0.1783,-0.1785,-0.1786,0,0,0,0,0,0,-0.2004,-0.2002,-0.1986,-0.199,-0.1988,-0.1969,-0.1967,-0.1964,-0.1964,-0.1914,-0.1905,-0.1952,-0.1871,-0.186,-0.1857,-0.1853,-0.181,-0.1807,-0.1781,-0.1784,-0.1785,-0.1856,0,0,0,0,0,0,-0.2004,-0.2002,-0.2009,-0.1991,-0.1987,-0.199,-0.1968,-0.1964,-0.1962,-0.196,-0.1914,-0.1904,-0.1869,-0.1863,-0.1853,-0.1848,-0.1804,-0.178,-0.1782,-0.1785,-0.1852,-0.186,-0.1867,0,0,0,0,0,-0.2005,-0.2017,-0.2009,-0.2007,-0.1994,-0.199,-0.1989,-0.1973,-0.1964,-0.197,-0.1957,-0.1905,-0.1871,-0.1862,-0.185,-0.1843,-0.1778,-0.1782,-0.1785,-0.1848,-0.1858,-0.1867,0,0,0,0,0,0,-0.2035,-0.2015,-0.2006,-0.2012,-0.2004,-0.1985,-0.1992,-0.198,-0.1976,-0.1974,-0.1929,-0.1919,-0.1912,-0.1879,-0.1869,-0.1847,-0.1813,-0.1814,-0.1865,-0.1874,-0.1882,-0.1886,-0.1801,0,0,0,0,0,-0.2043,-0.2045,-0.2025,-0.2033,-0.203,-0.2013,-0.2012,-0.1999,-0.1989,-0.1987,-0.1959,-0.1934,-0.1916,-0.1899,-0.1877,-0.1866,-0.1849,-0.1855,-0.1862,-0.1869,-0.1867,-0.1865,-0.1872,-0.1797,-0.1796,-0.1796,0,0,-0.2057,-0.2048,-0.2048,-0.204,-0.2033,-0.203,-0.2011,-0.2012,-0.2012,-0.1974,-0.1976,-0.1959,-0.1923,-0.1918,-0.1909,-0.1888,-0.1886,-0.1873,-0.1879,-0.1873,-0.1869,-0.1876,-0.1882,-0.1799,-0.1798,-0.1798,0,0,-0.208,-0.2078,-0.2081,-0.2075,-0.2065,-0.2054,-0.2056,-0.2041,-0.2039,-0.2042,-0.2019,-0.2016,-0.1979,-0.1962,-0.1945,-0.1983,-0.1931,-0.1967,-0.1998,-0.1997,-0.2003,-0.2007,-0.201,-0.2015,-0.1965,-0.1965,-0.1965,0,-0.2095,-0.2096,-0.2085,-0.2085,-0.2081,-0.2065,-0.2066,-0.2066,-0.2055,-0.2057,-0.2049,-0.2029,-0.1999,-0.1994,-0.2011,-0.1996,-0.1991,-0.1963,-0.2006,-0.201,-0.2014,-0.2016,-0.202,-0.1969,-0.1968,-0.1968,-0.1967,0,-0.2114,-0.2114,-0.212,-0.2111,-0.2109,-0.2111,-0.21,-0.2106,-0.2101,-0.2095,-0.21,-0.2084,-0.2066,-0.206,-0.2045,-0.2054,-0.2042,-0.2021,-0.1981,-0.2026,-0.2025,-0.2028,-0.1974,-0.1973,-0.1971,-0.1971,0,0,-0.2136,-0.2131,-0.2132,-0.2126,-0.2119,-0.2116,-0.2129,-0.2129,-0.2132,-0.2136,-0.2141,-0.2136,-0.2129,-0.2112,-0.2094,-0.2097,-0.2127,-0.2075,-0.2073,-0.2074,-0.2132,-0.2125,-0.2127,-0.2114,-0.2115,-0.2115,-0.2126,0,-0.2149,-0.2152,-0.2147,-0.215,-0.2147,-0.214,-0.2148,-0.215,-0.2152,-0.2157,-0.2156,-0.2149,-0.2147,-0.2137,-0.2148,-0.2124,-0.2136,-0.2126,-0.209,-0.2089,-0.2074,-0.213,-0.2128,-0.2137,-0.2129,-0.2129,-0.2129,0,-0.2159,-0.2159,-0.2163,-0.2156,-0.2155,-0.2156,-0.216,-0.2164,-0.2173,-0.2175,-0.2185,-0.2176,-0.2186,-0.2172,-0.2178,-0.2173,-0.2163,-0.2152,-0.2152,-0.2118,-0.2087,-0.2088,-0.2142,-0.2072,-0.2133,-0.2133,-0.2133,0,-0.2163,-0.2165,-0.2167,-0.2165,-0.2161,-0.2165,-0.2164,-0.2171,-0.2169,-0.2182,-0.2179,-0.2197,-0.2185,-0.2196,-0.2184,-0.218,-0.2187,-0.2169,-0.216,-0.2159,-0.2134,-0.213,-0.2111,-0.2179,-0.2179,-0.2179,-0.2179,0,-0.2168,-0.2166,-0.2169,-0.2166,-0.2168,-0.2165,-0.2167,-0.2171,-0.2172,-0.2167,-0.2184,-0.2181,-0.219,-0.2193,-0.2196,-0.2193,-0.2197,-0.2178,-0.2165,-0.2161,-0.216,-0.2078,-0.2037,-0.218,-0.2179,-0.2179,-0.2179,0,-0.2161,-0.2166,-0.2163,-0.2165,-0.2166,-0.2164,-0.2157,-0.2156,-0.2159,-0.2153,-0.2153,-0.2163,-0.217,-0.2183,-0.2184,-0.219,-0.2177,-0.2188,-0.2188,-0.2176,-0.2103,-0.2067,-0.2112,-0.2104,-0.2185,-0.2185,-0.2185,0,-0.2151,-0.2153,-0.2157,-0.2156,-0.2154,-0.2152,-0.215,-0.215,-0.2146,-0.214,-0.2136,-0.2138,-0.2139,-0.2156,-0.2179,-0.2196,-0.2164,-0.2188,-0.2178,-0.211,-0.206,-0.2103,-0.2096,-0.218,-0.218,-0.218,-0.218,0,-0.213,-0.2137,-0.2135,-0.2139,-0.2137,-0.2133,-0.2129,-0.2124,-0.212,-0.2119,-0.2117,-0.2115,-0.2132,-0.2148,-0.2164,-0.2176,-0.2164,-0.2186,-0.2114,-0.206,-0.2107,-0.2088,-0.2161,-0.218,-0.218,-0.218,-0.218,-0.218,-0.2107,-0.2104,-0.2109,-0.2113,-0.2115,-0.2111,-0.2099,-0.2103,-0.2097,-0.2077,-0.2098,-0.2088,-0.2099,-0.213,-0.2133,-0.2112,-0.2154,-0.2092,-0.2058,-0.2112,-0.2097,-0.2174,-0.2175,-0.2175,-0.2175,-0.2175,-0.2175,0,-0.2068,-0.2075,-0.208,-0.2083,-0.2086,-0.2092,-0.2081,-0.2068,-0.2064,-0.2054,-0.2055,-0.2054,-0.2047,-0.2039,-0.2022,-0.1977,-0.2029,-0.1953,-0.199,-0.199,-0.2045,-0.2033,-0.2005,-0.2005,-0.2005,-0.2005,-0.2005,-0.2005,-0.2042,-0.2043,-0.2056,-0.2055,-0.206,-0.2045,-0.2035,-0.2018,-0.201,-0.1988,-0.1978,-0.1969,-0.1864,-0.1861,-0.1809,-0.1827,-0.1792,-0.1847,-0.1822,-0.1803,-0.1813,-0.1822,-0.1802,-0.1725,-0.1725,-0.1814,-0.1813,-0.1813]}],[{"header":{"parameterUnit":"m.s-1","parameterCategory":2,"la1":30.2991,"la2":30.254,"lo1":-89.0895,"lo2":-89.0444,"dy":0.0017,"dx":0.0017,"nx":28,"ny":28,"refTime":"2025-03-26T21:00:00:Z","depth":"2","parameterNumber":2,"parameterNumberName":"U-component_of_CURRENTS"},"data":[0,0,0,0,0,0,0,0,0,0,0,0,0,0,0,0,0,0,0,0,0,0,0,0,0,0,0,0,0,0,0,0,0,0,0,0,0,0,0,0,0,0,0,0,0,0,0,0,0,0,0,0,0,0,0,0,0,0,-0.0002,-0.0002,0,0.0037,0.0038,0.0038,0.0054,0.0053,0.0053,0.0053,0.0103,0.0105,0.0107,0,0,0,0,0,0,0,0,0,0,0,0,0,-0.0008,-0.0008,-0.0002,-0.0002,-0.0002,0.0037,0.0038,0.0038,0.0054,0.0053,0.0053,0.0052,0.0103,0.0105,0.0107,0,0,0,0,0,0,0,0,0,0,0,0,0,0.0012,-0.0008,-0.0002,0.0008,0.0009,0.0037,0.0038,0.0039,0.0054,0.0053,0.0053,0.0052,0.0102,0.0105,0.0107,0.0134,0,0,0.0115,0.0116,0,0,0,0,0,0,0,0,0.0011,0.0013,0.0006,0.0007,0.0009,0.0037,0.0054,0.007,0.0054,0.004,0.0053,0.0052,0.0081,0.0085,0.0098,0.0137,0.0139,0.0115,0.0117,0.0118,0.0118,0,0,0,0,0,0,0,0.0009,0.0011,0.0016,0.0007,0.0008,0.003,0.0032,0.0058,0.0066,0.0041,0.0042,0.0042,0.0082,0.0095,0.0099,0.014,0.0115,0.0117,0.0119,0.012,0.0209,0.0209,0,0,0,0,0,0,-0.0004,0.001,0.0015,0.0017,0.0005,0.003,0.0032,0.0031,0.0065,0.0069,0.0042,0.0042,0.0091,0.0096,0.0101,0.0134,0.0118,0.012,0.0122,0.0208,0.0209,0.021,0,0,0,0,0,0,-0.0004,-0.0004,0.0013,0.0012,0.0015,0.003,0.0029,0.0032,0.0039,0.0065,0.0069,0.0044,0.0091,0.0097,0.0127,0.0136,0.0121,0.0124,0.0207,0.0208,0.0209,0.02,0,0,0,0,0,0,-0.0005,-0.0004,-0.0003,0.0011,0.0015,0.0028,0.0029,0.0033,0.0039,0.0039,0.0069,0.0073,0.0091,0.0123,0.0129,0.0139,0.0126,0.0206,0.0207,0.0209,0.0199,0.0201,0.0202,0,0,0,0,0,-0.0005,-0.0004,-0.0003,-0.0002,0.0013,0.0028,0.0033,0.0044,0.0039,0.0047,0.0068,0.0072,0.0137,0.0126,0.0133,0.0144,0.0205,0.0207,0.0209,0.0199,0.0201,0.0202,0,0,0,0,0,0,-0.0001,-0.0002,-0.0001,0.0001,0.0012,0.0029,0.0036,0.004,0.0064,0.0062,0.0084,0.0091,0.0122,0.0136,0.0123,0.0175,0.0171,0.0175,0.0161,0.0163,0.0165,0.016,0.0128,0,0,0,0,0,-0.0002,-0.0004,0.0003,0.0007,0.0008,0.0021,0.0029,0.0033,0.0051,0.006,0.008,0.0106,0.0138,0.0151,0.018,0.0207,0.0204,0.0219,0.0221,0.0222,0.0224,0.0223,0.0224,0.0216,0.0216,0.0216,0,0,0.0002,0.0,0.0001,0.0007,0.0015,0.0027,0.0025,0.0032,0.0049,0.0063,0.0092,0.0112,0.0147,0.0181,0.0195,0.0191,0.0222,0.0224,0.0224,0.0226,0.0225,0.0225,0.0226,0.0217,0.0217,0.0217,0,0,0.0006,0.0005,0.0003,0.0011,0.0016,0.0028,0.0026,0.004,0.0052,0.0082,0.0098,0.0121,0.0167,0.0192,0.0212,0.0239,0.023,0.0246,0.0248,0.0247,0.0247,0.0247,0.0237,0.0236,0.0245,0.0245,0.0245,0,0.0012,0.0011,0.0009,0.0012,0.0022,0.0026,0.0036,0.0054,0.0078,0.0092,0.009,0.0151,0.0176,0.0218,0.0229,0.0242,0.0233,0.0236,0.0246,0.0247,0.0247,0.0236,0.0236,0.0245,0.0245,0.0245,0.0245,0,0.0015,0.0018,0.0019,0.0026,0.0039,0.0047,0.0064,0.008,0.0091,0.0108,0.0142,0.0172,0.0208,0.0218,0.0235,0.0254,0.0244,0.0246,0.0236,0.0247,0.0235,0.0235,0.0244,0.0244,0.0244,0.0244,0,0,0.002,0.0021,0.0022,0.003,0.0045,0.0057,0.0084,0.0113,0.013,0.0149,0.0173,0.022,0.0221,0.0244,0.0258,0.0256,0.0251,0.025,0.025,0.0229,0.0235,0.025,0.0251,0.0246,0.0246,0.0246,0.0223,0,0.0027,0.0032,0.0036,0.0058,0.0066,0.0083,0.0111,0.0136,0.0159,0.0183,0.0201,0.0233,0.0236,0.025,0.0249,0.0259,0.025,0.0256,0.0238,0.0237,0.0241,0.0251,0.0273,0.0257,0.0222,0.0222,0.0222,0,0.0031,0.0035,0.0047,0.0073,0.0078,0.0096,0.0137,0.0163,0.0197,0.0212,0.0231,0.0246,0.0266,0.0257,0.0259,0.026,0.0248,0.0241,0.024,0.0258,0.0252,0.0244,0.0257,0.0221,0.0221,0.0221,0.0221,0,0.0033,0.0048,0.0059,0.0066,0.0093,0.0108,0.0132,0.0168,0.0194,0.0227,0.0241,0.026,0.0274,0.0261,0.0264,0.0257,0.0251,0.0241,0.0237,0.0238,0.0257,0.026,0.0228,0.0228,0.0228,0.0229,0.0229,0,0.0039,0.005,0.0058,0.0064,0.0087,0.0109,0.0142,0.0168,0.0202,0.0231,0.0251,0.0271,0.0274,0.0278,0.0263,0.0257,0.0253,0.0241,0.0237,0.0256,0.0258,0.0231,0.0231,0.0228,0.0228,0.0228,0.0228,0,0.0038,0.0042,0.0054,0.0075,0.0084,0.0102,0.0144,0.017,0.0201,0.0236,0.0246,0.0281,0.0289,0.0286,0.0274,0.0265,0.0253,0.0246,0.0267,0.0267,0.0233,0.0233,0.0233,0.0233,0.0233,0.0234,0.0234,0,0.0039,0.0041,0.0054,0.0062,0.0069,0.0098,0.0122,0.0164,0.0193,0.0242,0.0258,0.0281,0.03,0.0296,0.0288,0.0267,0.0257,0.0276,0.0273,0.0239,0.0235,0.0235,0.0235,0.0288,0.0288,0.0289,0.0289,0,0.0041,0.0038,0.0044,0.0055,0.0073,0.01,0.0136,0.0159,0.0211,0.0238,0.0275,0.0292,0.0303,0.0305,0.0295,0.0292,0.0284,0.0286,0.025,0.0289,0.0291,0.0287,0.0285,0.0294,0.0294,0.0293,0.0293,0.0293,0.0042,0.0041,0.0042,0.0054,0.0072,0.0101,0.012,0.0162,0.0203,0.0228,0.0258,0.0254,0.0287,0.0256,0.0273,0.0293,0.0298,0.0301,0.03,0.0297,0.0314,0.0317,0.0327,0.0327,0.0327,0.0327,0.0326,0,0.0045,0.0041,0.0048,0.0058,0.0068,0.0086,0.0129,0.0133,0.017,0.0166,0.0182,0.0171,0.0215,0.0229,0.0266,0.0299,0.0298,0.0305,0.0299,0.0297,0.0294,0.0309,0.0322,0.0321,0.0321,0.032,0,0,0.0047,0.0048,0.0047,0.0052,0.0058,0.007,0.009,0.0094,0.0079,0.0053,0.0038,0.0068,0.0141,0.0147,0.0228,0.0257,0.0249,0.0263,0.0274,0.0257,0.0252,0.0318,0.0342,0,0,0,0,0]},{"header":{"parameterUnit":"m.s-1","parameterCategory":2,"la1":30.2991,"la2":30.254,"lo1":-89.0895,"lo2":-89.0444,"dy":0.0017,"dx":0.0017,"nx":28,"ny":28,"refTime":"2025-03-26T21:00:00:Z","depth":"2","parameterNumber":3,"parameterNumberName":"V-component_of_CURRENTS"},"data":[0,0,0,0,0,0,0,0,0,0,0,0,0,0,0,0,0,0,0,0,0,0,0,0,0,0,0,0,0,0,0,0,0,0,0,0,0,0,0,0,0,0,0,0,0,0,0,0,0,0,0,0,0,0,0,0,0,0,0.0586,0.0586,0,0.0542,0.0541,0.0541,0.0456,0.0455,0.0453,0.0452,0.0284,0.0281,0.0278,0,0,0,0,0,0,0,0,0,0,0,0,0,0.0554,0.0555,0.0586,0.0586,0.0586,0.0542,0.0541,0.054,0.0456,0.0455,0.0453,0.0451,0.0285,0.0281,0.0277,0,0,0,0,0,0,0,0,0,0,0,0,0,0.0542,0.0556,0.0586,0.0541,0.0536,0.0542,0.0541,0.054,0.0457,0.0455,0.0453,0.0451,0.0286,0.0282,0.0277,0.0288,0,0,0.0262,0.026,0,0,0,0,0,0,0,0,0.0543,0.0543,0.0548,0.0544,0.0539,0.0505,0.0469,0.0451,0.0457,0.0484,0.0452,0.045,0.035,0.034,0.0334,0.0281,0.0273,0.0262,0.0259,0.0257,0.0255,0,0,0,0,0,0,0,0.0544,0.0544,0.0566,0.0548,0.0543,0.0508,0.0504,0.0465,0.0424,0.0481,0.0476,0.0476,0.0346,0.0339,0.0329,0.0271,0.0262,0.0258,0.0255,0.0253,0.014,0.0139,0,0,0,0,0,0,0.0561,0.0546,0.0567,0.0565,0.054,0.0511,0.0506,0.0516,0.0427,0.0414,0.0478,0.0473,0.0348,0.0334,0.0322,0.0254,0.0257,0.0252,0.025,0.014,0.014,0.0139,0,0,0,0,0,0,0.056,0.0563,0.0569,0.0556,0.0554,0.0514,0.0525,0.0516,0.0481,0.0427,0.041,0.0449,0.0346,0.0329,0.0272,0.0249,0.025,0.0246,0.014,0.014,0.0139,0.0166,0,0,0,0,0,0,0.056,0.0564,0.0559,0.0557,0.0556,0.056,0.0527,0.0517,0.0488,0.0479,0.0397,0.0381,0.0343,0.028,0.0267,0.0243,0.0242,0.014,0.014,0.014,0.0165,0.0166,0.0168,0,0,0,0,0,0.0559,0.0564,0.056,0.0561,0.0557,0.056,0.0555,0.0517,0.0488,0.0476,0.0422,0.0382,0.0269,0.0276,0.0261,0.0235,0.014,0.014,0.014,0.0164,0.0166,0.0168,0,0,0,0,0,0,0.0538,0.0556,0.0551,0.0558,0.0556,0.0546,0.0525,0.0511,0.0462,0.0436,0.0383,0.0364,0.0306,0.0274,0.0284,0.0204,0.0197,0.0194,0.0221,0.0222,0.0223,0.023,0.0238,0,0,0,0,0,0.054,0.0547,0.0559,0.0559,0.0557,0.054,0.0529,0.051,0.0478,0.0453,0.0404,0.0346,0.0302,0.0264,0.0222,0.0179,0.0161,0.0153,0.0154,0.0156,0.0153,0.0121,0.0119,0.0138,0.0138,0.0138,0,0,0.0532,0.0541,0.0542,0.0554,0.0541,0.0541,0.0525,0.0506,0.0494,0.0443,0.039,0.0348,0.0294,0.0246,0.0216,0.0208,0.0143,0.0155,0.0157,0.0153,0.0121,0.0119,0.0117,0.0138,0.0138,0.0138,0,0,0.0522,0.0526,0.0527,0.053,0.0522,0.052,0.0514,0.05,0.0474,0.0441,0.0397,0.0349,0.0278,0.024,0.0211,0.0197,0.0156,0.0174,0.0175,0.0145,0.0143,0.0141,0.0126,0.0122,0.0168,0.0168,0.0168,0,0.0501,0.0516,0.0524,0.0525,0.0521,0.0512,0.0507,0.0495,0.0461,0.0441,0.0419,0.0327,0.0278,0.0226,0.0216,0.0198,0.0178,0.0173,0.0146,0.0144,0.0142,0.0126,0.0122,0.0169,0.0169,0.0169,0.0169,0,0.0504,0.0503,0.05,0.0505,0.0504,0.0496,0.0496,0.0477,0.0448,0.0434,0.0379,0.0328,0.0267,0.0249,0.0221,0.0177,0.0169,0.0158,0.0144,0.0141,0.0126,0.0121,0.0171,0.0171,0.017,0.017,0,0,0.0477,0.0498,0.049,0.0491,0.0491,0.0492,0.0477,0.0466,0.0448,0.041,0.038,0.0312,0.028,0.0246,0.0208,0.0183,0.0151,0.0158,0.0156,0.0146,0.0089,0.0081,0.0075,0.013,0.0129,0.0128,0.0089,0,0.0464,0.0469,0.0483,0.0474,0.0476,0.0473,0.0466,0.0453,0.0431,0.0402,0.0357,0.0307,0.0281,0.0238,0.0211,0.0159,0.0137,0.0163,0.0089,0.0088,0.0083,0.0069,0.0208,0.0183,0.0084,0.0083,0.0082,0,0.0455,0.0462,0.0456,0.0467,0.0465,0.0455,0.0438,0.0432,0.0404,0.0382,0.0336,0.0302,0.0242,0.0228,0.0148,0.0161,0.0123,0.0099,0.0097,0.0075,0.007,0.0167,0.0178,0.0074,0.0075,0.0075,0.0076,0,0.0433,0.044,0.0433,0.0435,0.0446,0.0429,0.0423,0.0407,0.0398,0.0355,0.0334,0.0277,0.0223,0.0178,0.0109,0.0119,0.0038,0.0045,0.0014,0.0014,0.0111,0.012,0.0001,0.0001,0.0001,0.0001,0.0001,0,0.0422,0.0412,0.0415,0.0411,0.04,0.0405,0.0384,0.0375,0.0354,0.0337,0.0305,0.0277,0.0204,0.015,0.0107,0.0035,0.0026,0.001,-0.0003,0.0124,0.0135,0.002,0.0022,-0.0,0.0,0.0,0.0001,0,0.0399,0.0402,0.0396,0.0394,0.0389,0.0373,0.0364,0.0359,0.0332,0.0307,0.0286,0.025,0.0174,0.0117,0.0036,0.0018,-0.0037,-0.0057,0.01,0.0106,-0.0031,-0.0026,-0.0084,-0.0084,-0.0085,-0.0086,-0.0086,0,0.0393,0.0385,0.0376,0.0373,0.0364,0.0347,0.0345,0.0335,0.033,0.0294,0.0283,0.0209,0.017,0.0062,0.0003,-0.0068,-0.0076,0.0041,0.0084,-0.0036,-0.0042,-0.0037,-0.0032,0.0234,0.0237,0.0238,0.024,0,0.038,0.0363,0.0364,0.0354,0.0343,0.0354,0.0341,0.0338,0.0323,0.0309,0.0281,0.0248,0.0141,0.0123,0.0027,0.0024,0.0064,0.0073,-0.0095,0.0221,0.0257,0.0252,0.0249,0.0256,0.0254,0.0253,0.0252,0.0252,0.036,0.0358,0.0348,0.0339,0.0338,0.035,0.0359,0.0351,0.0349,0.0319,0.0295,0.0279,0.0264,0.0164,0.0099,0.0074,0.0068,0.0164,0.0162,0.0157,0.0187,0.0218,0.0218,0.0216,0.0214,0.0213,0.0212,0,0.035,0.0342,0.0341,0.0344,0.0357,0.0341,0.0358,0.038,0.0376,0.0332,0.0304,0.0362,0.0343,0.0282,0.025,0.0208,0.0229,0.0246,0.0323,0.0313,0.0302,0.0339,0.041,0.0409,0.0407,0.0406,0,0,0.0349,0.0344,0.035,0.036,0.0353,0.0375,0.0385,0.0399,0.0392,0.0396,0.0398,0.0371,0.0371,0.0385,0.0382,0.0376,0.0327,0.0387,0.0266,0.0354,0.034,0.0332,0.0389,0,0,0,0,0]}],[{"header":{"parameterUnit":"m.s-1","parameterCategory":2,"la1":30.2991,"la2":30.254,"lo1":-89.0895,"lo2":-89.0444,"dy":0.0017,"dx":0.0017,"nx":28,"ny":28,"refTime":"2025-03-26T21:00:00:Z","depth":"4","parameterNumber":2,"parameterNumberName":"U-component_of_CURRENTS"},"data":[0,0,0,0,0,0,0,0,0,0,0,0,0,0,0,0,0,0,0,0,0,0,0,0,0,0,0,0,0,0,0,0,0,0,0,0,0,0,0,0,0,0,0,0,0,0,0,0,0,0,0,0,0,0,0,0,0,0,-0.0066,-0.0066,0,-0.0036,-0.0036,-0.0035,-0.0012,-0.0012,-0.0012,-0.0012,0.0021,0.0022,0.0023,0,0,0,0,0,0,0,0,0,0,0,0,0,-0.0089,-0.0089,-0.0067,-0.0066,-0.0066,-0.0036,-0.0036,-0.0035,-0.0012,-0.0012,-0.0012,-0.0012,0.0021,0.0022,0.0023,0,0,0,0,0,0,0,0,0,0,0,0,0,-0.007,-0.0089,-0.0067,-0.0052,-0.005,-0.0036,-0.0036,-0.0035,-0.0012,-0.0012,-0.0012,-0.0012,0.0021,0.0022,0.0023,0.0027,0,0,0.0026,0.0027,0,0,0,0,0,0,0,0,-0.0071,-0.0069,-0.0054,-0.0053,-0.0051,-0.0029,-0.0032,-0.0015,-0.0012,-0.0025,-0.0012,-0.0012,0.0004,0.0006,0.0013,0.0028,0.003,0.0026,0.0027,0.0028,0.0028,0,0,0,0,0,0,0,-0.0073,-0.007,-0.0053,-0.0054,-0.0052,-0.0042,-0.0039,-0.0028,-0.0011,-0.0024,-0.0023,-0.0021,0.0005,0.0012,0.0014,0.003,0.0026,0.0027,0.0028,0.0029,0.001,0.0009,0,0,0,0,0,0,-0.008,-0.0072,-0.0054,-0.0053,-0.0062,-0.0041,-0.0038,-0.0035,-0.0011,-0.0008,-0.0022,-0.002,0.001,0.0013,0.0015,-0.002,0.0028,0.0029,0.0029,0.0011,0.001,0.0008,0,0,0,0,0,0,-0.008,-0.0078,-0.0056,-0.0062,-0.0059,-0.0042,-0.0038,-0.0035,-0.0023,-0.0009,-0.0006,-0.0013,0.001,0.0014,0.0019,-0.0017,0.0029,0.003,0.0013,0.0011,0.0009,-0.0064,0,0,0,0,0,0,-0.0081,-0.0079,-0.0072,-0.0063,-0.0059,-0.0045,-0.0038,-0.0034,-0.0023,-0.0021,-0.0001,0.0002,0.0011,0.0017,0.002,-0.0014,0.0031,0.0014,0.0012,0.001,-0.006,-0.0068,-0.0075,0,0,0,0,0,-0.0082,-0.0073,-0.0072,-0.007,-0.0053,-0.0045,-0.0041,-0.0027,-0.0023,-0.0016,-0.0011,0.0001,0.0004,0.0018,0.0021,-0.0014,0.0015,0.0012,0.001,-0.0057,-0.0066,-0.0074,0,0,0,0,0,0,-0.0077,-0.007,-0.0069,-0.0057,-0.0052,-0.0041,-0.0027,-0.0026,-0.0016,-0.0012,-0.0003,0.0001,-0.0015,0.0002,0.0017,-0.0026,0.0007,0.0005,-0.0045,-0.0053,-0.0061,-0.0055,0.0032,0,0,0,0,0,-0.0076,-0.0065,-0.0063,-0.0052,-0.0047,-0.0038,-0.0031,-0.0027,-0.002,-0.0014,-0.0013,-0.0012,-0.0024,-0.0023,-0.0023,-0.0034,-0.0006,-0.0058,-0.0065,-0.0072,-0.0065,-0.005,-0.0055,-0.0,-0.0,-0.0,0,0,-0.0071,-0.0064,-0.0058,-0.005,-0.0039,-0.0043,-0.0032,-0.0021,-0.004,-0.0013,-0.0032,-0.0033,-0.0031,-0.0056,-0.0062,-0.0045,-0.0075,-0.0075,-0.0081,-0.007,-0.0053,-0.0058,-0.0063,-0.0002,-0.0002,-0.0002,0,0,-0.0055,-0.005,-0.0036,-0.0038,-0.0029,-0.0034,-0.0033,-0.0032,-0.0043,-0.0063,-0.0061,-0.0074,-0.0087,-0.0097,-0.0104,-0.0146,-0.0115,-0.0158,-0.019,-0.0177,-0.0181,-0.0184,-0.0165,-0.0166,-0.0162,-0.0162,-0.0162,0,-0.0048,-0.0039,-0.0031,-0.0027,-0.0037,-0.0034,-0.0041,-0.0054,-0.006,-0.0079,-0.0078,-0.0114,-0.011,-0.0145,-0.017,-0.0163,-0.0146,-0.0159,-0.0186,-0.0188,-0.019,-0.017,-0.017,-0.0166,-0.0165,-0.0165,-0.0165,0,-0.0032,-0.0029,-0.0021,-0.0026,-0.0037,-0.0037,-0.0066,-0.0083,-0.0106,-0.0128,-0.017,-0.0173,-0.0191,-0.0209,-0.0205,-0.0232,-0.0213,-0.0197,-0.0162,-0.02,-0.0176,-0.0175,-0.0171,-0.017,-0.0169,-0.0168,0,0,-0.0006,-0.0009,-0.0006,-0.0018,-0.0041,-0.0049,-0.0091,-0.0129,-0.0154,-0.0188,-0.0223,-0.0265,-0.0265,-0.0271,-0.0273,-0.0269,-0.0278,-0.0246,-0.0243,-0.0224,-0.0245,-0.0196,-0.0189,-0.0269,-0.0269,-0.0269,-0.0226,0,0.0004,0.0012,-0.0007,-0.0029,-0.0034,-0.0072,-0.0117,-0.0157,-0.0192,-0.0224,-0.0254,-0.0278,-0.0292,-0.0297,-0.0305,-0.0276,-0.0276,-0.029,-0.0212,-0.021,-0.0159,-0.0186,-0.0269,-0.0225,-0.0225,-0.0224,-0.0224,0,0.0023,0.0021,0.0013,-0.0039,-0.0048,-0.0075,-0.0141,-0.0178,-0.0232,-0.0259,-0.0294,-0.0303,-0.0322,-0.0314,-0.0302,-0.0311,-0.0287,-0.0266,-0.0263,-0.0186,-0.0157,-0.0176,-0.0221,-0.0221,-0.0221,-0.0222,-0.0222,0,0.0046,0.0025,0.0016,0.0002,-0.005,-0.0083,-0.0123,-0.0185,-0.0205,-0.0262,-0.0258,-0.031,-0.0287,-0.0298,-0.0266,-0.0283,-0.0227,-0.0238,-0.0175,-0.0171,-0.0195,-0.0192,-0.0222,-0.0222,-0.0222,-0.0223,-0.0223,0,0.0059,0.0049,0.0028,0.0022,-0.0009,-0.0067,-0.0104,-0.0154,-0.0193,-0.0192,-0.0258,-0.0235,-0.0275,-0.0249,-0.0258,-0.0203,-0.0219,-0.0178,-0.0157,-0.0229,-0.023,-0.0194,-0.0191,-0.0221,-0.0221,-0.0222,-0.0222,0,0.0085,0.0078,0.0066,0.0021,0.0009,-0.0017,-0.0063,-0.008,-0.0129,-0.0116,-0.0122,-0.015,-0.0118,-0.0145,-0.0126,-0.0147,-0.0128,-0.0101,-0.0166,-0.0149,-0.0091,-0.0093,-0.0047,-0.0045,-0.0043,-0.0042,-0.0041,0,0.0095,0.0102,0.0088,0.0092,0.0073,0.0041,0.0028,-0.0037,-0.0036,-0.0044,-0.0018,0.0007,-0.0006,0.0039,0.0,-0.0022,-0.0021,-0.0037,-0.0091,-0.0089,-0.0073,-0.0078,-0.0082,-0.0038,-0.0037,-0.0037,-0.0036,0,0.011,0.0119,0.0117,0.0135,0.0131,0.0127,0.0107,0.0114,0.0065,0.0054,0.0083,0.0072,0.0125,0.0094,0.0091,0.007,-0.0057,-0.0019,-0.0024,-0.0075,-0.0077,-0.0064,-0.007,-0.003,-0.0031,-0.0032,-0.0032,0,0.0128,0.0137,0.0153,0.0158,0.0177,0.0188,0.0171,0.0173,0.0163,0.0144,0.0177,0.0172,0.0169,0.015,0.0145,0.0126,0.0106,0.0054,0.0045,0.0038,0.004,0.0048,0.0156,0,0,0,0,0,0.0139,0.0148,0.0167,0.0171,0.0199,0.0198,0.0215,0.0198,0.0182,0.0214,0.0181,0.0218,0.0205,0.0196,0.0192,0.0177,0.0102,0.0167,0.0036,0.0004,-0.0003,-0.0012,0,0,0,0,0,0,0.0142,0.0167,0.0168,0.0186,0.019,0.0208,0.0217,0.021,0.0216,0.0206,0.0209,0.0196,0.0195,0.0211,0.0185,0.0181,0.009,0.0162,0.0161,0.0008,0.0002,-0.0004,-0.0015,0,0,0,0,0]},{"header":{"parameterUnit":"m.s-1","parameterCategory":2,"la1":30.2991,"la2":30.254,"lo1":-89.0895,"lo2":-89.0444,"dy":0.0017,"dx":0.0017,"nx":28,"ny":28,"refTime":"2025-03-26T21:00:00:Z","depth":"4","parameterNumber":3,"parameterNumberName":"V-component_of_CURRENTS"},"data":[0,0,0,0,0,0,0,0,0,0,0,0,0,0,0,0,0,0,0,0,0,0,0,0,0,0,0,0,0,0,0,0,0,0,0,0,0,0,0,0,0,0,0,0,0,0,0,0,0,0,0,0,0,0,0,0,0,0,0.0225,0.0225,0,0.0153,0.0152,0.0152,0.0145,0.0146,0.0147,0.0147,0.0136,0.0136,0.0135,0,0,0,0,0,0,0,0,0,0,0,0,0,0.0298,0.0297,0.0225,0.0224,0.0224,0.0153,0.0152,0.0151,0.0145,0.0146,0.0147,0.0148,0.0137,0.0136,0.0134,0,0,0,0,0,0,0,0,0,0,0,0,0,0.0251,0.0297,0.0226,0.0212,0.021,0.0154,0.0152,0.0151,0.0145,0.0146,0.0147,0.0148,0.0137,0.0136,0.0134,0.0103,0,0,0.013,0.0129,0,0,0,0,0,0,0,0,0.0254,0.0248,0.0215,0.0213,0.021,0.0159,0.0174,0.0138,0.0145,0.017,0.0147,0.0149,0.0149,0.0146,0.013,0.0102,0.0102,0.013,0.0129,0.0128,0.0128,0,0,0,0,0,0,0,0.0257,0.0251,0.0197,0.0214,0.0211,0.0189,0.0184,0.0167,0.0155,0.0168,0.0167,0.0158,0.0148,0.0131,0.013,0.0102,0.013,0.0128,0.0127,0.0127,0.0121,0.0121,0,0,0,0,0,0,0.0267,0.0254,0.0199,0.0195,0.0235,0.0187,0.0181,0.0175,0.0154,0.0151,0.0157,0.0158,0.0133,0.0131,0.0129,0.0139,0.0128,0.0127,0.0126,0.012,0.0121,0.0122,0,0,0,0,0,0,0.0269,0.0263,0.0202,0.0223,0.0213,0.0185,0.0177,0.0173,0.0156,0.0145,0.0144,0.0146,0.0134,0.0131,0.0116,0.0137,0.0126,0.0125,0.0119,0.012,0.0121,0.0128,0,0,0,0,0,0,0.0271,0.0264,0.0263,0.0223,0.0213,0.0159,0.0176,0.017,0.0149,0.0149,0.0135,0.0135,0.0135,0.0118,0.0115,0.0135,0.0124,0.0118,0.012,0.0121,0.0127,0.0129,0.0131,0,0,0,0,0,0.0274,0.026,0.0264,0.0257,0.0212,0.0157,0.0149,0.0133,0.0147,0.0126,0.0129,0.0136,0.0126,0.0116,0.0112,0.0133,0.0117,0.0119,0.0121,0.0126,0.0129,0.0131,0,0,0,0,0,0,0.0288,0.0257,0.026,0.0238,0.02,0.0156,0.0137,0.0129,0.0112,0.0122,0.0123,0.0121,0.0127,0.0122,0.0111,0.0139,0.0131,0.0132,0.0137,0.014,0.0142,0.0126,0.0122,0,0,0,0,0,0.0292,0.0278,0.0239,0.0221,0.0203,0.0172,0.0151,0.0137,0.0116,0.0109,0.0106,0.0115,0.0128,0.0125,0.0128,0.012,0.0132,0.0139,0.0141,0.0143,0.013,0.0163,0.0167,0.0127,0.0127,0.0127,0,0,0.0294,0.0274,0.0268,0.0224,0.0198,0.0156,0.0162,0.0123,0.0103,0.0111,0.0094,0.0116,0.0128,0.0134,0.0138,0.0132,0.0166,0.0145,0.0146,0.0132,0.0165,0.0169,0.0172,0.0128,0.0128,0.0128,0,0,0.0274,0.0271,0.0245,0.0212,0.0169,0.0144,0.0133,0.0093,0.0091,0.0073,0.0097,0.0116,0.0118,0.0132,0.0143,0.0151,0.0179,0.0175,0.0166,0.0199,0.0203,0.0205,0.0245,0.0252,0.0173,0.0173,0.0173,0,0.0279,0.0246,0.0226,0.0186,0.0163,0.0139,0.0101,0.0083,0.0049,0.0056,0.0072,0.0107,0.0116,0.0135,0.0153,0.0155,0.0186,0.0154,0.0201,0.0204,0.0207,0.0247,0.0254,0.0174,0.0174,0.0174,0.0174,0,0.023,0.0208,0.0186,0.0138,0.0105,0.0068,0.004,0.0023,0.0035,0.0034,0.0063,0.0084,0.0112,0.0131,0.0145,0.018,0.0201,0.0203,0.0192,0.0212,0.0253,0.026,0.0175,0.0174,0.0174,0.0174,0,0,0.0231,0.0168,0.0163,0.0142,0.0083,0.0051,0.0021,-0.0006,-0.0004,0.0003,0.0019,0.0059,0.0097,0.0111,0.0144,0.0168,0.0228,0.0199,0.0201,0.0233,0.032,0.0272,0.0275,0.025,0.0251,0.0251,0.0347,0,0.0202,0.0143,0.0113,0.0058,0.0026,0.0001,-0.0019,-0.0038,-0.0031,-0.0022,0.002,0.0058,0.0083,0.0127,0.0151,0.0201,0.0244,0.0202,0.0299,0.0302,0.0252,0.028,0.0254,0.0352,0.0354,0.0355,0.0356,0,0.0163,0.0133,0.0093,0.0041,0.0026,0.0007,-0.0014,-0.0038,-0.0033,-0.0015,0.0019,0.0052,0.0095,0.0125,0.0209,0.0189,0.0261,0.0298,0.0303,0.0252,0.0265,0.0325,0.0369,0.0368,0.0367,0.0366,0.0365,0,0.0184,0.0113,0.0096,0.0076,0.002,0.0023,0.0005,-0.0007,-0.0017,0.0014,0.0024,0.0068,0.0112,0.018,0.025,0.0252,0.0336,0.0349,0.0375,0.0374,0.0385,0.038,0.0429,0.0429,0.0429,0.0429,0.0428,0,0.0162,0.0141,0.0122,0.0113,0.0103,0.0064,0.0063,0.0051,0.0042,0.0039,0.006,0.0068,0.0133,0.0177,0.025,0.0317,0.0346,0.0372,0.039,0.0389,0.0384,0.0391,0.0386,0.0432,0.0431,0.0431,0.043,0,0.0177,0.016,0.0144,0.0122,0.012,0.0129,0.0096,0.0084,0.0086,0.0082,0.01,0.0089,0.0145,0.0196,0.0297,0.0317,0.0389,0.0421,0.0415,0.0431,0.0412,0.0406,0.0459,0.0458,0.0457,0.0456,0.0456,0,0.0171,0.0173,0.0179,0.0189,0.0191,0.0188,0.0176,0.0136,0.0112,0.0091,0.0085,0.0123,0.0133,0.0227,0.0273,0.0386,0.0405,0.0439,0.0422,0.04,0.0414,0.0409,0.0404,0.0454,0.0454,0.0454,0.0454,0,0.0167,0.0198,0.0194,0.0233,0.024,0.0208,0.0192,0.0168,0.0119,0.011,0.0102,0.0131,0.0171,0.022,0.0299,0.038,0.0398,0.0431,0.0434,0.0418,0.0396,0.0408,0.0405,0.0451,0.0451,0.0451,0.0452,0,0.0185,0.0196,0.0226,0.0254,0.0265,0.0244,0.0213,0.0178,0.0145,0.0112,0.011,0.0149,0.0163,0.0218,0.0286,0.0347,0.0369,0.0385,0.0391,0.0395,0.0325,0.0284,0.0321,0,0,0,0,0,0.0196,0.0212,0.0232,0.0259,0.0277,0.0282,0.0222,0.0177,0.0126,0.0131,0.0122,0.0167,0.0227,0.0229,0.0292,0.0271,0.0374,0.034,0.0395,0.0434,0.0438,0.0358,0,0,0,0,0,0,0.0203,0.0227,0.0231,0.0268,0.0299,0.0288,0.0255,0.0208,0.0192,0.0163,0.0197,0.0194,0.0256,0.0236,0.0312,0.0319,0.0358,0.0365,0.0365,0.0432,0.0435,0.0438,0.0358,0,0,0,0,0]}]]